Time,TemperatureF,DewpointF,PressureIn,WindDirection,WindDirectionDegrees,WindSpeedMPH,WindSpeedGustMPH,Humidity,HourlyPrecipIn,Conditions,Clouds,dailyrainin,SoftwareType,DateUTC
2013-02-27 00:22:00,34.0,-99.9,29.83,North,-999,-999.0,-999.0,-999,-99.99,,,-99.99,,2013-02-27 05:22:00,
2013-02-27 00:32:00,34.0,-99.9,29.83,North,-999,-999.0,-999.0,-999,-99.99,,,-99.99,,2013-02-27 05:32:00,
2013-02-27 00:42:00,34.0,-99.9,29.83,North,-999,-999.0,-999.0,-999,-99.99,,,-99.99,,2013-02-27 05:42:00,
2013-02-27 00:52:00,35.0,-99.9,29.80,North,-999,-999.0,-999.0,-999,-99.99,,,-99.99,,2013-02-27 05:52:00,
2013-02-27 01:22:00,35.0,-99.9,29.80,North,-999,-999.0,-999.0,-999,-99.99,,,-99.99,,2013-02-27 06:22:00,
2013-02-27 01:33:00,35.0,-99.9,29.80,North,-999,-999.0,-999.0,-999,-99.99,,,-99.99,,2013-02-27 06:33:00,
2013-02-27 01:42:00,35.0,-99.9,29.80,North,-999,-999.0,-999.0,-999,-99.99,,,-99.99,,2013-02-27 06:42:00,
2013-02-27 02:52:00,36.0,-99.9,29.70,North,-999,-999.0,-999.0,-999,-99.99,,,-99.99,,2013-02-27 07:52:00,
2013-02-27 03:22:00,36.0,-99.9,29.70,North,-999,-999.0,-999.0,-999,-99.99,,,-99.99,,2013-02-27 08:22:00,
2013-02-27 03:32:00,36.0,-99.9,29.70,North,-999,-999.0,-999.0,-999,-99.99,,,-99.99,,2013-02-27 08:32:00,
2013-02-27 03:42:00,36.0,-99.9,29.70,North,-999,-999.0,-999.0,-999,-99.99,,,-99.99,,2013-02-27 08:42:00,
2013-02-27 04:52:00,37.0,-99.9,29.62,North,-999,-999.0,-999.0,-999,-99.99,,,-99.99,,2013-02-27 09:52:00,
2013-02-27 05:22:00,37.0,-99.9,29.62,North,-999,-999.0,-999.0,-999,-99.99,,,-99.99,,2013-02-27 10:22:00,
2013-02-27 05:33:00,37.0,-99.9,29.62,North,-999,-999.0,-999.0,-999,-99.99,,,-99.99,,2013-02-27 10:33:00,
2013-02-27 05:42:00,37.0,-99.9,29.62,North,-999,-999.0,-999.0,-999,-99.99,,,-99.99,,2013-02-27 10:42:00,
2013-02-27 05:52:00,38.0,-99.9,29.60,North,-999,-999.0,-999.0,-999,-99.99,,,-99.99,,2013-02-27 10:52:00,
2013-02-27 06:22:00,38.0,-99.9,29.60,North,-999,-999.0,-999.0,-999,-99.99,,,-99.99,,2013-02-27 11:22:00,
2013-02-27 06:32:00,38.0,-99.9,29.60,North,-999,-999.0,-999.0,-999,-99.99,,,-99.99,,2013-02-27 11:32:00,
2013-02-27 06:42:00,38.0,-99.9,29.60,North,-999,-999.0,-999.0,-999,-99.99,,,-99.99,,2013-02-27 11:42:00,
2013-02-27 06:52:00,39.0,-99.9,29.55,North,-999,-999.0,-999.0,-999,-99.99,,,-99.99,,2013-02-27 11:52:00,
2013-02-27 07:33:00,39.0,-99.9,29.55,North,-999,-999.0,-999.0,-999,-99.99,,,-99.99,,2013-02-27 12:33:00,
2013-02-27 07:42:00,39.0,-99.9,29.55,North,-999,-999.0,-999.0,-999,-99.99,,,-99.99,,2013-02-27 12:42:00,
2013-02-27 07:52:00,41.0,-99.9,29.54,North,-999,-999.0,-999.0,-999,-99.99,,,-99.99,,2013-02-27 12:52:00,
2013-02-27 08:22:00,41.0,-99.9,29.54,North,-999,-999.0,-999.0,-999,-99.99,,,-99.99,,2013-02-27 13:22:00,
2013-02-27 08:32:00,41.0,-99.9,29.54,North,-999,-999.0,-999.0,-999,-99.99,,,-99.99,,2013-02-27 13:32:00,
2013-02-27 08:42:00,41.0,-99.9,29.54,North,-999,-999.0,-999.0,-999,-99.99,,,-99.99,,2013-02-27 13:42:00,
2013-02-27 09:52:00,42.0,-99.9,29.52,North,-999,-999.0,-999.0,-999,-99.99,,,-99.99,,2013-02-27 14:52:00,
2013-02-27 10:23:00,42.0,-99.9,29.52,North,-999,-999.0,-999.0,-999,-99.99,,,-99.99,,2013-02-27 15:23:00,
2013-02-27 10:32:00,42.0,-99.9,29.52,North,-999,-999.0,-999.0,-999,-99.99,,,-99.99,,2013-02-27 15:32:00,
2013-02-27 10:42:00,42.0,-99.9,29.52,North,-999,-999.0,-999.0,-999,-99.99,,,-99.99,,2013-02-27 15:42:00,
2013-02-27 10:52:00,44.0,-99.9,29.53,North,-999,-999.0,-999.0,-999,-99.99,,,-99.99,,2013-02-27 15:52:00,
2013-02-27 11:22:00,44.0,-99.9,29.53,North,-999,-999.0,-999.0,-999,-99.99,,,-99.99,,2013-02-27 16:22:00,
2013-02-27 11:32:00,44.0,-99.9,29.53,North,-999,-999.0,-999.0,-999,-99.99,,,-99.99,,2013-02-27 16:32:00,
2013-02-27 11:42:00,44.0,-99.9,29.53,North,-999,-999.0,-999.0,-999,-99.99,,,-99.99,,2013-02-27 16:42:00,
2013-02-27 11:52:00,43.0,-99.9,29.54,North,-999,-999.0,-999.0,-999,-99.99,,,-99.99,,2013-02-27 16:52:00,
2013-02-27 12:22:00,43.0,-99.9,29.54,North,-999,-999.0,-999.0,-999,-99.99,,,-99.99,,2013-02-27 17:22:00,
2013-02-27 12:32:00,43.0,-99.9,29.54,North,-999,-999.0,-999.0,-999,-99.99,,,-99.99,,2013-02-27 17:32:00,
2013-02-27 12:42:00,43.0,-99.9,29.54,North,-999,-999.0,-999.0,-999,-99.99,,,-99.99,,2013-02-27 17:42:00,
2013-02-27 12:52:00,43.0,-99.9,29.55,North,-999,-999.0,-999.0,-999,-99.99,,,-99.99,,2013-02-27 17:52:00,
2013-02-27 13:22:00,43.0,-99.9,29.55,North,-999,-999.0,-999.0,-999,-99.99,,,-99.99,,2013-02-27 18:22:00,
2013-02-27 13:32:00,43.0,-99.9,29.55,North,-999,-999.0,-999.0,-999,-99.99,,,-99.99,,2013-02-27 18:32:00,
2013-02-27 13:42:00,43.0,-99.9,29.55,North,-999,-999.0,-999.0,-999,-99.99,,,-99.99,,2013-02-27 18:42:00,
2013-02-27 13:52:00,47.0,-99.9,29.54,North,-999,-999.0,-999.0,-999,-99.99,,,-99.99,,2013-02-27 18:52:00,
2013-02-27 14:22:00,47.0,-99.9,29.54,North,-999,-999.0,-999.0,-999,-99.99,,,-99.99,,2013-02-27 19:22:00,
2013-02-27 14:32:00,47.0,-99.9,29.54,North,-999,-999.0,-999.0,-999,-99.99,,,-99.99,,2013-02-27 19:32:00,
2013-02-27 14:42:00,47.0,-99.9,29.54,North,-999,-999.0,-999.0,-999,-99.99,,,-99.99,,2013-02-27 19:42:00,
2013-02-27 14:52:00,46.0,-99.9,29.57,North,-999,-999.0,-999.0,-999,-99.99,,,-99.99,,2013-02-27 19:52:00,
2013-02-27 15:22:00,46.0,-99.9,29.57,North,-999,-999.0,-999.0,-999,-99.99,,,-99.99,,2013-02-27 20:22:00,
2013-02-27 15:32:00,46.0,-99.9,29.57,North,-999,-999.0,-999.0,-999,-99.99,,,-99.99,,2013-02-27 20:32:00,
2013-02-27 15:42:00,46.0,-99.9,29.57,North,-999,-999.0,-999.0,-999,-99.99,,,-99.99,,2013-02-27 20:42:00,
2013-02-27 15:52:00,44.0,-99.9,29.60,North,-999,-999.0,-999.0,-999,-99.99,,,-99.99,,2013-02-27 20:52:00,
2013-02-27 16:22:00,44.0,-99.9,29.60,North,-999,-999.0,-999.0,-999,-99.99,,,-99.99,,2013-02-27 21:22:00,
2013-02-27 16:32:00,44.0,-99.9,29.60,North,-999,-999.0,-999.0,-999,-99.99,,,-99.99,,2013-02-27 21:32:00,
2013-02-27 16:42:00,44.0,-99.9,29.60,North,-999,-999.0,-999.0,-999,-99.99,,,-99.99,,2013-02-27 21:42:00,
2013-02-27 16:52:00,44.0,-99.9,29.60,North,-999,-999.0,-999.0,-999,-99.99,,,-99.99,,2013-02-27 21:52:00,
2013-02-27 17:22:00,44.0,-99.9,29.60,North,-999,-999.0,-999.0,-999,-99.99,,,-99.99,,2013-02-27 22:22:00,
2013-02-27 17:32:00,44.0,-99.9,29.60,North,-999,-999.0,-999.0,-999,-99.99,,,-99.99,,2013-02-27 22:32:00,
2013-02-27 17:42:00,44.0,-99.9,29.60,North,-999,-999.0,-999.0,-999,-99.99,,,-99.99,,2013-02-27 22:42:00,
2013-02-27 17:52:00,43.0,-99.9,29.62,North,-999,-999.0,-999.0,-999,-99.99,,,-99.99,,2013-02-27 22:52:00,
2013-02-27 18:22:00,43.0,-99.9,29.62,North,-999,-999.0,-999.0,-999,-99.99,,,-99.99,,2013-02-27 23:22:00,
2013-02-27 18:32:00,43.0,-99.9,29.62,North,-999,-999.0,-999.0,-999,-99.99,,,-99.99,,2013-02-27 23:32:00,
2013-02-27 18:42:00,43.0,-99.9,29.62,North,-999,-999.0,-999.0,-999,-99.99,,,-99.99,,2013-02-27 23:42:00,
2013-02-27 18:52:00,42.0,-99.9,29.64,North,-999,-999.0,-999.0,-999,-99.99,,,-99.99,,2013-02-27 23:52:00,
2013-02-27 19:22:00,42.0,-99.9,29.64,North,-999,-999.0,-999.0,-999,-99.99,,,-99.99,,2013-02-28 00:22:00,
2013-02-27 19:32:00,42.0,-99.9,29.64,North,-999,-999.0,-999.0,-999,-99.99,,,-99.99,,2013-02-28 00:32:00,
2013-02-27 19:42:00,42.0,-99.9,29.64,North,-999,-999.0,-999.0,-999,-99.99,,,-99.99,,2013-02-28 00:42:00,
2013-02-27 19:52:00,40.0,-99.9,29.65,North,-999,-999.0,-999.0,-999,-99.99,,,-99.99,,2013-02-28 00:52:00,
2013-02-27 20:22:00,40.0,-99.9,29.65,North,-999,-999.0,-999.0,-999,-99.99,,,-99.99,,2013-02-28 01:22:00,
2013-02-27 20:32:00,40.0,-99.9,29.65,North,-999,-999.0,-999.0,-999,-99.99,,,-99.99,,2013-02-28 01:32:00,
2013-02-27 20:42:00,40.0,-99.9,29.65,North,-999,-999.0,-999.0,-999,-99.99,,,-99.99,,2013-02-28 01:42:00,
2013-02-27 20:52:00,41.0,-99.9,29.65,North,-999,-999.0,-999.0,-999,-99.99,,,-99.99,,2013-02-28 01:52:00,
2013-02-27 21:22:00,41.0,-99.9,29.65,North,-999,-999.0,-999.0,-999,-99.99,,,-99.99,,2013-02-28 02:22:00,
2013-02-27 21:32:00,41.0,-99.9,29.65,North,-999,-999.0,-999.0,-999,-99.99,,,-99.99,,2013-02-28 02:32:00,
2013-02-27 21:42:00,41.0,-99.9,29.65,North,-999,-999.0,-999.0,-999,-99.99,,,-99.99,,2013-02-28 02:42:00,
2013-02-27 21:52:00,37.0,-99.9,29.65,North,-999,-999.0,-999.0,-999,-99.99,,,-99.99,,2013-02-28 02:52:00,
2013-02-27 22:22:00,37.0,-99.9,29.65,North,-999,-999.0,-999.0,-999,-99.99,,,-99.99,,2013-02-28 03:22:00,
2013-02-27 22:32:00,37.0,-99.9,29.65,North,-999,-999.0,-999.0,-999,-99.99,,,-99.99,,2013-02-28 03:32:00,
2013-02-27 22:42:00,37.0,-99.9,29.65,North,-999,-999.0,-999.0,-999,-99.99,,,-99.99,,2013-02-28 03:42:00,
2013-02-27 22:52:00,36.0,-99.9,29.64,North,-999,-999.0,-999.0,-999,-99.99,,,-99.99,,2013-02-28 03:52:00,
2013-02-27 23:22:00,36.0,-99.9,29.64,North,-999,-999.0,-999.0,-999,-99.99,,,-99.99,,2013-02-28 04:22:00,
2013-02-27 23:32:00,36.0,-99.9,29.64,North,-999,-999.0,-999.0,-999,-99.99,,,-99.99,,2013-02-28 04:32:00,
2013-02-27 23:42:00,36.0,-99.9,29.64,North,-999,-999.0,-999.0,-999,-99.99,,,-99.99,,2013-02-28 04:42:00,
2013-02-27 23:52:00,35.0,-99.9,29.63,North,-999,-999.0,-999.0,-999,-99.99,,,-99.99,,2013-02-28 04:52:00,